This is the latest recevied weather packets stored in our database for station/object EA1IDU-12. If no packets are shown the sender has not sent any weather packets the latest 10 day(s).
| Time | Temp. | Humidity | Pressure | Rain* | Wind** | Luminosity | Snow |
|---|---|---|---|---|---|---|---|
| 1788113407 | 26.11° C | 29% | 1027.4 hPa | - | - | - | - |
| 1788112507 | 28.33° C | 27% | 1027 hPa | - | - | - | - |
| 1788111607 | 29.44° C | 27% | 1026.9 hPa | - | - | - | - |
| 1788110707 | 30° C | 27% | 1026.7 hPa | - | - | - | - |
| 1788109806 | 29.44° C | 28% | 1026.6 hPa | - | - | - | - |
| 1788108906 | 29.44° C | 28% | 1026.5 hPa | - | - | - | - |
| 1788108006 | 28.33° C | 30% | 1026.6 hPa | - | - | - | - |
| 1788107106 | 29.44° C | 29% | 1026.3 hPa | - | - | - | - |
| 1788106206 | 28.33° C | 30% | 1026.4 hPa | - | - | - | - |
| 1788105306 | 30° C | 29% | 1026.5 hPa | - | - | - | - |
| 1788104412 | 28.89° C | 29% | 1026.4 hPa | - | - | - | - |
| 1788103505 | 29.44° C | 29% | 1026.4 hPa | - | - | - | - |
| 1788102605 | 28.89° C | 30% | 1026.5 hPa | - | - | - | - |
| 1788101705 | 28.89° C | 30% | 1026.6 hPa | - | - | - | - |
| 1788100805 | 30.56° C | 28% | 1026.7 hPa | - | - | - | - |
| 1788099905 | 29.44° C | 29% | 1026.7 hPa | - | - | - | - |
| 1788099005 | 31.11° C | 28% | 1026.7 hPa | - | - | - | - |
| 1788098106 | 31.11° C | 28% | 1026.8 hPa | - | - | - | - |
| 1788097204 | 30.56° C | 29% | 1026.9 hPa | - | - | - | - |
| 1788096304 | 31.11° C | 29% | 1026.9 hPa | - | - | - | - |
| 1788095404 | 30.56° C | 31% | 1027.1 hPa | - | - | - | - |
| 1788094504 | 30° C | 32% | 1027.1 hPa | - | - | - | - |
| 1788093604 | 29.44° C | 34% | 1027.2 hPa | - | - | - | - |
| 1788092703 | 29.44° C | 34% | 1027.4 hPa | - | - | - | - |
| 1788091803 | 31.11° C | 34% | 1027.3 hPa | - | - | - | - |
* Rain since midnight (hover to see other rain measurements)
** Current wind speed in m/s (hover to see current wind gust speed)